Location: Tr�vern
(48.0333°N, 4.6000°W)
Time: 07:03:06
(UTC+00:00)

Cosmos 2123 Rocket - Pass Details

Date: 14 July 2020
Orbit: 960 x 993 km, 82.9° (Epoch: 04 August)

Event Time Altitude Azimuth Distance (km) Brightness Sun altitude
Rises 00:42:49 0° 348° (NNW) 3,662 8.4 -20.2°
Reaches altitude 10° 00:45:21 10° 345° (NNW) 2,709 7.4 -20.2°
Maximum altitude 00:51:26 61° 267° (W) 1,082 4.1 -20.1°
Enters shadow 00:54:00 35° 202° (SSW) 1,510 4.5 -20.0°
